Flag for Egypt Weather past 2 weeks in Al Jizah, Egypt

Now
81 °F

Fog.


Feels Like: 87 °F
Forecast: 79 / 103 °F
Wind: 2 mph from North

Location: Cairo Airport

Current Time: Aug 3, 2015 at 5:17:21 AM

Latest Report: Aug 3, 2015 at 4:30 AM


Visibility: 2 mi

Pressure: 29.77 "Hg

Humidity: 89%

Dew point: 77 °F

Location of Al JizahLocation

Historic Weather in Al Jizah — Graph

°F

Al Jizah temperature yesterday

Maximum temperature yesterday: 97 °F (at 2:00 PM)
Minimum temperature yesterday: 79 °F (at 2:30 AM)
Average temperature yesterday: 87 °F

Past Weeks' High & Low Weather Summary

 TemperatureHumidityPressure
High106 °F (Jul 24, 1:00 PM)100% (Jul 25, 7:00 AM)29.86 "Hg (Jul 25, 7:00 AM)
Low73 °F (Jul 20, 4:30 AM)9% (Jul 24, 1:00 PM)29.68 "Hg (Jul 20, 2:00 PM)
Average87 °F51%29.74 "Hg
* Reported Jul 19 4:00 AM — Aug 3 4:00 AM, Al Jizah, Weather by CustomWeather, © 2015

Note: Actual official high and low records may vary slightly from our data, if they occured in-between our weather recording intervals... More about our weather records

Advertising

Al Jizah weather history for previous 24 hours

 ConditionsComfort  
Time TempWeatherWind HumidityBarometerVisibility
4:00 AM
Mon, Aug 3
81 °FFog.2 mph89%29.80 "Hg2 mi
3:30 AM81 °FFog.6 mph89%29.77 "Hg2 mi
3:00 AM81 °FClear.6 mph89%29.80 "Hg4 mi
2:30 AM81 °FClear.5 mph89%29.80 "Hg4 mi
2:00 AM81 °FClear.5 mph89%29.80 "Hg10 mi
1:30 AM81 °FClear.5 mph89%29.80 "Hg10 mi
1:00 AM82 °FClear.5 mph84%29.80 "Hg10 mi
12:30 AM82 °FClear.6 mph84%29.80 "Hg10 mi
12:00 AM82 °FClear.6 mph84%29.80 "Hg10 mi
11:30 PM
Sun, Aug 2
82 °FClear.8 mph79%29.83 "Hg10 mi
11:00 PM84 °FClear.8 mph74%29.83 "Hg10 mi
10:30 PM84 °FClear.9 mph74%29.80 "Hg10 mi
10:00 PM84 °FClear.9 mph74%29.80 "Hg10 mi
9:30 PM86 °FClear.9 mph70%29.80 "Hg10 mi
9:00 PM88 °FClear.9 mph59%29.80 "Hg10 mi
8:30 PM90 °FClear.9 mph52%29.80 "Hg10 mi
8:00 PM90 °FClear.10 mph52%29.77 "Hg10 mi
7:30 PM91 °FClear.9 mph46%29.77 "Hg10 mi
7:00 PM91 °FClear.9 mph52%29.77 "Hg10 mi
6:30 PM93 °FSunny.9 mph49%29.77 "Hg10 mi
6:00 PM95 °FSunny.8 mph47%29.77 "Hg10 mi
5:30 PM95 °FSunny.7 mph47%29.74 "Hg10 mi
5:00 PM95 °FSunny.8 mph50%29.74 "Hg10 mi
4:30 PM97 °FSunny.7 mph44%29.74 "Hg10 mi
4:00 PM97 °FSunny.6 mph44%29.74 "Hg10 mi
3:30 PM97 °FSunny.7 mph44%29.74 "Hg10 mi
3:00 PM97 °FSunny.7 mph44%29.77 "Hg10 mi
2:30 PM97 °FSunny.7 mph44%29.77 "Hg10 mi
2:00 PM97 °FSunny.6 mph47%29.77 "Hg10 mi
1:30 PM93 °FSunny.7 mph49%29.77 "Hg10 mi
1:00 PM93 °FSunny.6 mph49%29.77 "Hg10 mi
12:30 PM93 °FSunny.7 mph49%29.77 "Hg10 mi
12:00 PM91 °FSunny.7 mph52%29.80 "Hg10 mi
11:30 AM90 °FSunny.6 mph59%29.80 "Hg10 mi
10:00 AM86 °FSunny.6 mph66%29.80 "Hg10 mi
9:30 AM84 °FScattered clouds.6 mph70%29.80 "HgN/A
9:00 AM84 °FScattered clouds.6 mph70%29.80 "HgN/A
8:30 AM81 °FScattered clouds.8 mph84%29.80 "Hg4 mi
8:00 AM81 °FScattered clouds.8 mph84%29.80 "Hg4 mi
7:30 AM79 °FFog.5 mph94%29.80 "Hg2 mi
7:00 AM79 °FFog.5 mph94%29.80 "Hg2 mi
6:30 AM79 °FFog.5 mph89%29.77 "Hg2 mi
6:00 AM79 °FClear.5 mph89%29.77 "Hg4 mi
5:30 AM79 °FClear.6 mph84%29.77 "Hg4 mi
5:00 AM79 °FClear.6 mph84%29.77 "Hg10 mi
Weather by CustomWeather, © 2015

See weather overviewHow to use our weather pages